NOAA 16 DEB, 41146

Orbit data source: Space-Track

NOAA 16 DEB, 41146 is space debris in SSO originally from a launch on Thu, 21 Sep 2000 UTC launched from the Air Force Western Test Range (AFWTR). Debris objects in space refer to the collection of defunct objects orbiting the Earth. Examples of debris include non-operational satellites, rocket bodies, and fragments generated from explosions, collisions, or faulty payload assembly.

Loading next visibility...
Identifier
41146, 2000-055CD
Orbit
SSO
Country
Flag of USUS
Related business
Manufacturer
Unknown
Mission
Spacecraft
Bus & Motor
Unknown
Mass
Unknown
Launch date (UTC)
2000-09-21 (25 years ago)
Launch vehicle
Unknown
Launch site
Air Force Western Test Range (AFWTR)
Object type
Payload
Rocket body
Debris
Shape & HBR
Unknown shape, 0.1 m
Radar Cross Section
Small (<0.1 m²)

Expand to show TLE details & history
Last TLE update: 7 hours ago

TLE from 7 hours ago
0 NOAA 16 DEB
1 41146U 00055CD  25308.06056654  .00017714  00000-0  47298-2 0  9998
2 41146  98.8293  59.1448 0017341  67.0932 293.2088 14.48323813513795
Epoch: 2025-11-04T01:27Z
TLE epoch observation values (Epoch: 2025-11-04T01:27:12.949Z)
Latitude
-0°
Longitude
-6.21216°
Altitude
729.236 km
Speed
7.493 km/s
True Right ascension
03h 56m 34s
True Declination
0° 00' 00"
Sunlit
Object was in full shadow at epoch
Visualization orbit readout
Latitude
Unknown
Longitude
Unknown
Altitude
Unknown
Speed
Unknown
Apparent Right ascension
Unknown
Apparent Declination
Unknown
Sunlit
N/A
Visualization observer readout
Local Sidereal Time
04:30:55
Azimuth
Unknown
Elevation
Unknown
Doppler factor
Unknown
Orbital elements
Apogee altitude
740.578 km
Perigee altitude
715.932 km
Semi-major axis
7,106.392 km
Eccentricity
0.00173
Inclination
98.8293°
RAAN
59.1448°
Arg. of periapsis
67.0932°
True anomaly
293.02601°
Mean anomaly
293.2088°
Eccentric anomaly
293.11742°
Mean motion
3.62301 °/min
Orbital period
99.36 mins
BSTAR
0.0047298
Loading maneuver chart data...
Computing Atmospheric mass density...
Loading historical data...
Loading historical data...
Loading historical data...
Loading historical data...
Loading historical data...
Loading historical data...
Loading historical data...

Documentation

Showing up to 5 results
|